28 mei 2022

Tijd Code Weer Temp. Zicht Plafond Wind METAR/SPECI
5:00 a.m.
V
50 °F 6¼ mi+ - 330° 330° 1 kt METAR LFCR 280300Z AUTO 33001KT CAVOK 10/08 Q1019 NOSIG
4:30 a.m.
V
54 °F 6¼ mi+ - Var Var 2 kt METAR LFCR 280230Z AUTO VRB02KT CAVOK 12/10 Q1020 NOSIG
4:00 a.m.
V
50 °F 6¼ mi+ - 270° 270° 2 kt METAR LFCR 280200Z AUTO 27002KT CAVOK 10/08 Q1020 NOSIG
3:30 a.m.
V
55 °F 6¼ mi+ - Var Var 1 kt METAR LFCR 280130Z AUTO VRB01KT CAVOK 13/10 Q1020 NOSIG
3:00 a.m.
V
55 °F 6¼ mi+ - 340° 340° 5 kt METAR LFCR 280100Z AUTO 34005KT CAVOK 13/09 Q1020 NOSIG
2:30 a.m.
V
57 °F 6¼ mi+ - Var Var 3 kt METAR LFCR 280030Z AUTO VRB03KT CAVOK 14/09 Q1021 NOSIG
2:00 a.m.
V
57 °F 6¼ mi+ - Var Var 3 kt METAR LFCR 280000Z AUTO VRB03KT CAVOK 14/10 Q1021 NOSIG
1:30 a.m.
V
55 °F 6¼ mi+ - 310° 310° 4 kt METAR LFCR 272330Z AUTO 31004KT CAVOK 13/10 Q1021 NOSIG
1:00 a.m.
V
59 °F 6¼ mi+ - 330° 330° 4 kt METAR LFCR 272300Z AUTO 33004KT CAVOK 15/11 Q1022 NOSIG
12:30 a.m.
V
57 °F 6¼ mi+ - 310° 310° 5 kt METAR LFCR 272230Z AUTO 31005KT 290V350 CAVOK 14/12 Q1022 NOSIG
12:00 a.m.
V
59 °F 6¼ mi+ - Var Var 2 kt METAR LFCR 272200Z AUTO VRB02KT CAVOK 15/12 Q1022 BECMG 30012KT

27 mei 2022

Tijd Code Weer Temp. Zicht Plafond Wind METAR/SPECI
11:30 p.m.
V
59 °F 6¼ mi+ - 300° 300° 5 kt METAR LFCR 272130Z AUTO 30005KT CAVOK 15/12 Q1022 NOSIG
11:00 p.m.
V
61 °F 6¼ mi+ - 300° 300° 7 kt METAR LFCR 272100Z AUTO 30007KT CAVOK 16/12 Q1022 NOSIG
10:30 p.m.
V
61 °F 6¼ mi+ - 300° 300° 8 kt METAR LFCR 272030Z AUTO 30008KT CAVOK 16/12 Q1022 NOSIG
10:00 p.m.
V
32 °F 6¼ mi+ - 300° 300° 10 kt METAR LFCR 272000Z AUTO 30010KT CAVOK ///// Q1022 NOSIG
9:30 p.m.
V
32 °F 6¼ mi+ - 300° 300° 10 kt METAR LFCR 271930Z AUTO 30010KT CAVOK ///// Q1022 NOSIG
9:00 p.m.
V
32 °F 6¼ mi+ - 310° 310° 11 kt METAR LFCR 271900Z AUTO 31011KT CAVOK ///// Q1022 NOSIG
8:30 p.m.
I
70 °F 2¾ mi - 300° 300° 14 kt METAR LFCR 271830Z AUTO 30014KT 9999 4500 NSC 21/14 Q1021 NOSIG
8:00 p.m.
V
72 °F 6¼ mi+ - 310° 310° 13 kt METAR LFCR 271800Z AUTO 31013KT CAVOK 22/14 Q1021 NOSIG
7:30 p.m.
V
72 °F 6¼ mi+ - 300° 300° 14 kt METAR LFCR 271730Z AUTO 30014KT CAVOK 22/14 Q1021 NOSIG
7:00 p.m.
V
73 °F 6¼ mi+ - 310° 310° 14 kt METAR LFCR 271700Z AUTO 31014KT CAVOK 23/14 Q1021 NOSIG
6:30 p.m.
V
75 °F 6¼ mi+ - 300° 300° 13 kt METAR LFCR 271630Z AUTO 30013KT CAVOK 24/14 Q1022 NOSIG
6:00 p.m.
V
75 °F 6¼ mi+ - 310° 310° 11 kt METAR LFCR 271600Z AUTO 31011KT 280V340 CAVOK 24/14 Q1022 NOSIG
5:30 p.m.
V
75 °F 6¼ mi+ - 300° 300° 10 kt METAR LFCR 271530Z AUTO 30010KT 260V340 9999 FEW044 24/14 Q1022 NOSIG
5:00 p.m.
V
75 °F 6¼ mi+ - 310° 310° 13 kt METAR LFCR 271500Z AUTO 31013KT 270V350 CAVOK 24/14 Q1022 NOSIG
4:30 p.m.
V
75 °F 6¼ mi+ - 310° 310° 10 kt METAR LFCR 271430Z AUTO 31010KT 270V350 CAVOK 24/14 Q1022 NOSIG
4:00 p.m.
V
75 °F 6¼ mi+ - 310° 310° 13 kt METAR LFCR 271400Z AUTO 31013KT 270V350 CAVOK 24/14 Q1023 NOSIG
3:30 p.m.
V
73 °F 6¼ mi+ - 300° 300° 12 kt METAR LFCR 271330Z AUTO 30012KT 260V330 CAVOK 23/13 Q1023 NOSIG
3:00 p.m.
V
73 °F 6¼ mi+ - 310° 310° 10 kt METAR LFCR 271300Z AUTO 31010KT 270V340 CAVOK 23/13 Q1023 NOSIG
2:30 p.m.
V
70 °F 6¼ mi+ - 310° 310° 11 kt METAR LFCR 271230Z AUTO 31011KT 280V350 CAVOK 21/13 Q1024 NOSIG
2:00 p.m.
V
70 °F 6¼ mi+ - 300° 300° 11 kt METAR LFCR 271200Z AUTO 30011KT 260V350 CAVOK 21/12 Q1024 NOSIG
1:30 p.m.
V
68 °F 6¼ mi+ - 300° 300° 10 kt METAR LFCR 271130Z AUTO 30010KT 270V350 9999 FEW032 20/12 Q1024 NOSIG
1:00 p.m.
V
68 °F 6¼ mi+ - 320° 320° 11 kt METAR LFCR 271100Z AUTO 32011KT 280V360 CAVOK 20/12 Q1024 NOSIG
12:30 p.m.
V
68 °F 6¼ mi+ - 300° 300° 12 kt METAR LFCR 271030Z AUTO 30012KT CAVOK 20/12 Q1024 NOSIG
12:00 p.m.
V
32 °F 6¼ mi+ - 310° 310° 10 kt METAR LFCR 271000Z AUTO 31010KT 270V360 CAVOK ///// Q1024 NOSIG
11:30 a.m.
V
32 °F 6¼ mi+ - 310° 310° 10 kt METAR LFCR 270930Z AUTO 31010KT 280V340 CAVOK ///// Q1024 NOSIG
11:00 a.m.
V
32 °F 6¼ mi+ - 310° 310° 8 kt METAR LFCR 270900Z AUTO 31008KT 280V350 CAVOK ///// Q1025 NOSIG
10:30 a.m.
V
63 °F 6¼ mi+ - 320° 320° 6 kt METAR LFCR 270830Z AUTO 32006KT 260V030 CAVOK 17/11 Q1025 NOSIG
10:00 a.m.
V
59 °F 6¼ mi+ - 320° 320° 7 kt METAR LFCR 270800Z AUTO 32007KT 290V010 CAVOK 15/11 Q1025 NOSIG
9:30 a.m.
V
57 °F 6¼ mi+ - 330° 330° 8 kt METAR LFCR 270730Z AUTO 33008KT 300V360 CAVOK 14/10 Q1025 NOSIG
9:00 a.m.
V
55 °F 6¼ mi+ - 320° 320° 9 kt METAR LFCR 270700Z AUTO 32009KT CAVOK 13/10 Q1025 NOSIG
8:30 a.m.
V
55 °F 6¼ mi+ - 320° 320° 6 kt METAR LFCR 270630Z AUTO 32006KT CAVOK 13/11 Q1024 NOSIG
8:00 a.m.
V
54 °F 6¼ mi+ - 320° 320° 7 kt METAR LFCR 270600Z AUTO 32007KT CAVOK 12/10 Q1024 NOSIG
7:30 a.m.
V
52 °F 6¼ mi+ - 330° 330° 7 kt METAR LFCR 270530Z AUTO 33007KT CAVOK 11/10 Q1024 NOSIG
7:00 a.m.
V
52 °F 6¼ mi+ - 320° 320° 5 kt METAR LFCR 270500Z AUTO 32005KT 280V360 CAVOK 11/09 Q1024 NOSIG
6:30 a.m.
V
48 °F 6¼ mi+ - 300° 300° 6 kt METAR LFCR 270430Z AUTO 30006KT CAVOK 09/09 Q1024 NOSIG
6:00 a.m.
V
48 °F 6¼ mi+ - 300° 300° 6 kt METAR LFCR 270400Z AUTO 30006KT CAVOK 09/08 Q1024 NOSIG
5:30 a.m.
V
46 °F 6¼ mi+ - 310° 310° 5 kt METAR LFCR 270330Z AUTO 31005KT 280V340 CAVOK 08/08 Q1024 NOSIG
5:00 a.m.
V
48 °F 6¼ mi+ - 290° 290° 5 kt METAR LFCR 270300Z AUTO 29005KT CAVOK 09/08 Q1025 NOSIG
4:30 a.m.
V
48 °F 6¼ mi+ - 310° 310° 6 kt METAR LFCR 270230Z AUTO 31006KT CAVOK 09/09 Q1025 NOSIG
4:00 a.m.
V
48 °F 6¼ mi+ - 300° 300° 5 kt METAR LFCR 270200Z AUTO 30005KT CAVOK 09/09 Q1025 NOSIG
3:30 a.m.
V
48 °F 6¼ mi+ - 290° 290° 3 kt METAR LFCR 270130Z AUTO 29003KT CAVOK 09/09 Q1025 NOSIG
3:00 a.m.
V
50 °F 6¼ mi+ - 270° 270° 3 kt METAR LFCR 270100Z AUTO 27003KT CAVOK 10/09 Q1025 NOSIG
2:30 a.m.
V
50 °F 6¼ mi+ - 290° 290° 5 kt METAR LFCR 270030Z AUTO 29005KT CAVOK 10/10 Q1026 NOSIG
2:00 a.m.
V
50 °F 6¼ mi+ - 280° 280° 3 kt METAR LFCR 270000Z AUTO 28003KT CAVOK 10/10 Q1026 NOSIG
1:30 a.m.
V
52 °F 6¼ mi+ - 300° 300° 7 kt METAR LFCR 262330Z AUTO 30007KT CAVOK 11/10 Q1026 NOSIG
1:00 a.m.
V
52 °F 6¼ mi+ - 290° 290° 6 kt METAR LFCR 262300Z AUTO 29006KT CAVOK 11/10 Q1026 NOSIG
12:30 a.m.
V
52 °F 6¼ mi+ - 290° 290° 7 kt METAR LFCR 262230Z AUTO 29007KT 9999 FEW038 11/10 Q1027 NOSIG
12:00 a.m.
V
55 °F 6¼ mi+ 3.800 ft 290° 290° 8 kt METAR LFCR 262200Z AUTO 29008KT 9999 OVC038 13/10 Q1027 NOSIG

26 mei 2022

Tijd Code Weer Temp. Zicht Plafond Wind METAR/SPECI
11:30 p.m.
V
57 °F 6¼ mi+ 3.800 ft 300° 300° 9 kt METAR LFCR 262130Z AUTO 30009KT 9999 OVC038 14/11 Q1027 NOSIG
11:00 p.m.
V
32 °F 6¼ mi+ 3.900 ft 300° 300° 8 kt METAR LFCR 262100Z AUTO 30008KT 9999 OVC039 ///// Q1027 NOSIG
10:30 p.m.
V
59 °F 6¼ mi+ 3.800 ft 310° 310° 7 kt METAR LFCR 262030Z AUTO 31007KT 9999 FEW031 OVC038 15/11 Q1026 NOSIG
10:00 p.m.
V
59 °F 6¼ mi+ 3.600 ft 300° 300° 8 kt METAR LFCR 262000Z AUTO 30008KT 9999 OVC036 15/11 Q1026 NOSIG
9:30 p.m.
V
32 °F 6¼ mi+ 3.500 ft 290° 290° 9 kt METAR LFCR 261930Z AUTO 29009KT 9999 OVC035 ///// Q1026 NOSIG
9:00 p.m.
V
32 °F 6¼ mi+ 3.700 ft 290° 290° 11 kt METAR LFCR 261900Z AUTO 29011KT 9999 OVC037 ///// Q1025 NOSIG
8:30 p.m.
V
32 °F 6¼ mi+ 4.100 ft 300° 300° 12 kt METAR LFCR 261830Z AUTO 30012KT 9999 BKN041 ///// Q1025 NOSIG
8:00 p.m.
V
32 °F 6¼ mi+ 4.500 ft 290° 290° 13 kt METAR LFCR 261800Z AUTO 29013KT 9999 BKN045 ///// Q1025 NOSIG
7:30 p.m.
V
32 °F 6¼ mi+ 4.600 ft 300° 300° 12 kt METAR LFCR 261730Z AUTO 30012KT 9999 OVC046 ///// Q1025 NOSIG
7:00 p.m.
V
32 °F 6¼ mi+ 4.600 ft 290° 290° 14 kt METAR LFCR 261700Z AUTO 29014KT 9999 FEW030 OVC046 ///// Q1025 NOSIG
6:30 p.m.
V
32 °F 6¼ mi+ 4.500 ft 280° 280° 13 kt METAR LFCR 261630Z AUTO 28013KT 9999 FEW029 OVC045 ///// Q1025 NOSIG
6:00 p.m.
V
32 °F 6¼ mi+ 4.400 ft 280° 280° 13 kt METAR LFCR 261600Z AUTO 28013KT 9999 FEW032 OVC044 ///// Q1025 NOSIG
5:30 p.m.
V
32 °F 6¼ mi+ 4.200 ft 300° 300° 11 kt METAR LFCR 261530Z AUTO 30011KT 9999 SCT031 OVC042 ///// Q1025 NOSIG
5:00 p.m.
V
32 °F 6¼ mi+ 3.000 ft 290° 290° 10 kt METAR LFCR 261500Z AUTO 29010KT 260V320 9999 BKN030 BKN035 OVC041 ///// Q1025 NOSIG
4:30 p.m.
V
63 °F 6¼ mi+ 3.100 ft 300° 300° 10 kt METAR LFCR 261430Z AUTO 30010KT 270V330 9999 BKN031 OVC040 17/10 Q1026 NOSIG
4:00 p.m.
V
63 °F 6¼ mi+ 3.200 ft 300° 300° 10 kt METAR LFCR 261400Z AUTO 30010KT 280V340 9999 BKN032 OVC040 17/10 Q1026 NOSIG
3:30 p.m.
V
63 °F 6¼ mi+ 3.200 ft 300° 300° 9 kt METAR LFCR 261330Z AUTO 30009KT 270V350 9999 BKN032 OVC039 17/10 Q1026 NOSIG
3:00 p.m.
V
63 °F 6¼ mi+ 3.100 ft 300° 300° 11 kt METAR LFCR 261300Z AUTO 30011KT 260V330 9999 BKN031 OVC039 17/10 Q1026 NOSIG
2:30 p.m.
V
63 °F 6¼ mi+ 3.100 ft 310° 310° 11 kt METAR LFCR 261230Z AUTO 31011KT 270V350 9999 BKN031 OVC037 17/10 Q1026 NOSIG
2:00 p.m.
V
64 °F 6¼ mi+ 3.700 ft 300° 300° 14 kt METAR LFCR 261200Z AUTO 30014KT 9999 SCT029 OVC037 18/10 Q1026 NOSIG
1:30 p.m.
V
63 °F 6¼ mi+ 3.700 ft 310° 310° 10 kt METAR LFCR 261130Z AUTO 31010KT 280V340 9999 FEW030 OVC037 17/10 Q1027 NOSIG
1:00 p.m.
V
63 °F 6¼ mi+ 3.300 ft 310° 310° 11 kt METAR LFCR 261100Z AUTO 31011KT 9999 FEW027 BKN033 OVC040 17/10 Q1027 NOSIG
12:30 p.m.
V
59 °F 6¼ mi+ 3.600 ft 310° 310° 10 kt METAR LFCR 261030Z AUTO 31010KT 280V340 9999 SCT029 OVC036 15/09 Q1027 NOSIG
12:00 p.m.
M
59 °F 6¼ mi+ 2.800 ft 320° 320° 9 kt METAR LFCR 261000Z AUTO 32009KT 280V350 9999 BKN028 OVC036 15/09 Q1027 NOSIG
11:30 a.m.
V
59 °F 6¼ mi+ 3.600 ft 300° 300° 10 kt METAR LFCR 260930Z AUTO 30010KT 9999 FEW025 BKN036 15/09 Q1027 NOSIG
11:00 a.m.
V
59 °F 6¼ mi+ - 300° 300° 9 kt METAR LFCR 260900Z AUTO 30009KT 9999 FEW023 15/09 Q1027 NOSIG
10:30 a.m.
V
59 °F 6¼ mi+ - 310° 310° 9 kt METAR LFCR 260830Z AUTO 31009KT 280V350 CAVOK 15/09 Q1026 NOSIG
10:00 a.m.
V
57 °F 6¼ mi+ - 310° 310° 10 kt METAR LFCR 260800Z AUTO 31010KT CAVOK 14/09 Q1026 NOSIG
9:30 a.m.
V
55 °F 6¼ mi+ - 310° 310° 7 kt METAR LFCR 260730Z AUTO 31007KT CAVOK 13/09 Q1026 NOSIG
9:00 a.m.
V
54 °F 6¼ mi+ - 310° 310° 7 kt METAR LFCR 260700Z AUTO 31007KT 270V340 CAVOK 12/09 Q1026 NOSIG
8:30 a.m.
V
52 °F 6¼ mi+ - 310° 310° 7 kt METAR LFCR 260630Z AUTO 31007KT 280V340 CAVOK 11/09 Q1026 NOSIG
8:00 a.m.
V
52 °F 6¼ mi+ - 290° 290° 8 kt METAR LFCR 260600Z AUTO 29008KT CAVOK 11/08 Q1026 NOSIG
7:30 a.m.
V
48 °F 6¼ mi+ - 260° 260° 4 kt METAR LFCR 260530Z AUTO 26004KT CAVOK 09/08 Q1026 NOSIG
7:00 a.m.
V
46 °F 6¼ mi+ - 250° 250° 5 kt METAR LFCR 260500Z AUTO 25005KT CAVOK 08/08 Q1025 NOSIG
6:30 a.m.
V
46 °F 6¼ mi+ - 290° 290° 4 kt METAR LFCR 260430Z AUTO 29004KT CAVOK 08/07 Q1025 NOSIG
6:00 a.m.
V
46 °F 6¼ mi+ - 270° 270° 3 kt METAR LFCR 260400Z AUTO 27003KT CAVOK 08/07 Q1025 NOSIG
5:30 a.m.
V
46 °F 6¼ mi+ - 220° 220° 3 kt METAR LFCR 260330Z AUTO 22003KT CAVOK 08/07 Q1025 NOSIG
5:00 a.m.
V
46 °F 6¼ mi+ - 280° 280° 5 kt METAR LFCR 260300Z AUTO 28005KT CAVOK 08/07 Q1025 NOSIG
4:30 a.m.
V
48 °F 6¼ mi+ - 300° 300° 5 kt METAR LFCR 260230Z AUTO 30005KT CAVOK 09/07 Q1025 NOSIG
4:00 a.m.
V
48 °F 6¼ mi+ - 300° 300° 9 kt METAR LFCR 260200Z AUTO 30009KT CAVOK 09/07 Q1025 NOSIG
3:30 a.m.
V
48 °F 6¼ mi+ - 300° 300° 8 kt METAR LFCR 260130Z AUTO 30008KT CAVOK 09/07 Q1025 NOSIG
3:00 a.m.
V
50 °F 6¼ mi+ - 310° 310° 7 kt METAR LFCR 260100Z AUTO 31007KT CAVOK 10/07 Q1025 NOSIG
2:30 a.m.
V
48 °F 6¼ mi+ - 310° 310° 8 kt METAR LFCR 260030Z AUTO 31008KT CAVOK 09/07 Q1025 NOSIG
2:00 a.m.
V
48 °F 6¼ mi+ - 300° 300° 8 kt METAR LFCR 260000Z AUTO 30008KT CAVOK 09/06 Q1025 NOSIG
1:30 a.m.
V
48 °F 6¼ mi+ - 300° 300° 7 kt METAR LFCR 252330Z AUTO 30007KT CAVOK 09/06 Q1025 NOSIG
1:00 a.m.
V
48 °F 6¼ mi+ - 300° 300° 7 kt METAR LFCR 252300Z AUTO 30007KT CAVOK 09/06 Q1025 NOSIG
12:30 a.m.
V
50 °F 6¼ mi+ - 300° 300° 6 kt METAR LFCR 252230Z AUTO 30006KT CAVOK 10/06 Q1025 NOSIG
12:00 a.m.
V
50 °F 6¼ mi+ - 300° 300° 7 kt METAR LFCR 252200Z AUTO 30007KT CAVOK 10/06 Q1025 NOSIG

25 mei 2022

Tijd Code Weer Temp. Zicht Plafond Wind METAR/SPECI
11:30 p.m.
V
52 °F 6¼ mi+ - 310° 310° 5 kt METAR LFCR 252130Z AUTO 31005KT CAVOK 11/07 Q1025 NOSIG
11:00 p.m.
V
52 °F 6¼ mi+ - 290° 290° 8 kt METAR LFCR 252100Z AUTO 29008KT CAVOK 11/07 Q1025 NOSIG
10:30 p.m.
V
54 °F 6¼ mi+ - 300° 300° 8 kt METAR LFCR 252030Z AUTO 30008KT CAVOK 12/06 Q1025 NOSIG
10:00 p.m.
V
54 °F 6¼ mi+ - 290° 290° 9 kt METAR LFCR 252000Z AUTO 29009KT CAVOK 12/07 Q1024 NOSIG
9:30 p.m.
V
55 °F 6¼ mi+ - 290° 290° 9 kt METAR LFCR 251930Z AUTO 29009KT CAVOK 13/07 Q1024 NOSIG
Oudere gegevens

Installeer onze app

Gemakkelijke toegang tot al het luchtvaartweer op je mobiele telefoon en tablet.
Met veel functies die niet op de website beschikbaar zijn, zoals offline ondersteuning en een persoonlijke lijst van vliegvelden.

Met cookies volgen wij en derde partijen jouw internetgedrag binnen onze site. Als je verdergaat gaan we ervan uit dat je dit goedvindt. Meer info